DW6885 Weather Reports


Display with metric or nautical units.
time (UTC)temp
F
wind
direction
speed
MPH
gust
MPH
rain 1hr
in
rain 24hr
in
rain mn
in
humidity
%
barometer
mb
20170121041037 32 209 0.0 0.0 0.00 0.03 0.03 94 1012.7
20170121035839 33 209 0.0 0.0 0.00 0.03 0.03 94 1012.7
20170121035242 32 209 0.0 0.0 0.00 0.03 0.03 94 1012.7
20170121034841 33 209 0.0 0.0 0.00 0.03 0.03 94 1012.8
20170121034339 33 209 0.0 0.0 0.00 0.03 0.03 94 1012.8
20170121033841 33 209 0.0 1.0 0.00 0.03 0.03 94 1012.7
20170121033739 32 209 0.0 0.0 0.00 0.03 0.03 94 1012.7
20170121032339 32 209 0.0 0.0 0.00 0.03 0.03 95 1012.7
20170121032041 32 209 0.0 0.0 0.00 0.03 0.03 95 1012.7
20170121031841 32 209 0.0 0.0 0.00 0.03 0.03 95 1012.8
20170121031339 32 209 0.0 0.0 0.00 0.03 0.03 95 1012.8
20170121030345 32 209 0.0 0.0 0.00 0.03 0.03 95 1012.8
20170121030339 32 209 0.0 0.0 0.00 0.03 0.03 95 1012.7
20170121025839 32 209 0.0 0.0 0.00 0.03 0.03 95 1012.7
20170121025338 32 209 0.0 0.0 0.00 0.03 0.03 95 1012.7
20170121024841 32 209 0.0 0.0 0.00 0.03 0.03 95 1012.8
20170121024643 32 209 0.0 0.0 0.00 0.03 0.03 95 1012.8
20170121024338 32 209 0.0 0.0 0.00 0.03 0.03 95 1012.8
20170121023841 32 209 0.0 0.0 0.00 0.03 0.03 95 1012.9
20170121023042 32 209 0.0 0.0 0.00 0.03 0.03 95 1012.9
20170121022339 32 209 0.0 0.0 0.00 0.03 0.03 95 1013.0
20170121021343 32 209 0.0 0.0 0.00 0.03 0.03 95 1013.1
20170121020841 32 209 0.0 0.0 0.00 0.03 0.03 96 1013.1
20170121015839 32 209 0.0 0.0 0.00 0.03 0.03 96 1013.1
20170121015740 32 209 0.0 0.0 0.00 0.03 0.03 96 1013.1
20170121015339 32 209 0.0 0.0 0.00 0.03 0.03 95 1013.2
20170121014040 32 209 0.0 0.0 0.00 0.03 0.03 95 1013.1
20170121012841 32 209 0.0 0.0 0.00 0.03 0.03 95 1013.3
20170121012344 32 209 0.0 0.0 0.00 0.03 0.03 95 1013.3
20170121011844 32 209 0.0 0.0 0.00 0.03 0.03 95 1013.4
20170121011339 32 209 0.0 0.0 0.00 0.03 0.03 95 1013.4
20170121010739 32 209 0.0 0.0 0.00 0.03 0.03 95 1013.4
20170121010339 32 209 0.0 0.0 0.00 0.03 0.03 95 1013.4
20170121005038 32 209 0.0 0.0 0.00 0.03 0.03 95 1013.4
20170121004841 32 209 0.0 0.0 0.00 0.03 0.03 95 1013.4
20170121003841 32 209 0.0 0.0 0.00 0.03 0.03 94 1013.4
20170121003537 32 209 0.0 0.0 0.00 0.03 0.03 94 1013.5
20170121002841 32 209 0.0 0.0 0.00 0.03 0.03 94 1013.5
20170121002338 32 209 0.0 0.0 0.00 0.03 0.03 94 1013.5
20170121001844 32 209 0.0 0.0 0.00 0.03 0.03 94 1013.6
20170121001744 32 209 0.0 0.0 0.00 0.03 0.03 94 1013.6
20170121000340 32 209 0.0 1.0 0.00 0.03 0.03 94 1013.7
20170121000139 32 209 0.0 3.0 0.00 0.03 0.03 94 1013.7
20170120235838 32 258 0.0 1.0 0.00 0.03 0.03 94 1013.7
20170120234844 32 336 0.0 0.0 0.00 0.03 0.03 94 1013.8
20170120234537 32 336 0.0 0.0 0.00 0.03 0.03 94 1013.7
20170120234338 32 336 0.0 0.0 0.00 0.03 0.03 94 1013.8
20170120233841 32 336 0.0 0.0 0.00 0.03 0.03 93 1013.9
20170120233342 32 336 0.0 0.0 0.00 0.03 0.03 94 1013.8
20170120232843 32 336 0.0 0.0 0.00 0.03 0.03 93 1013.8
20170120232841 32 336 0.0 0.0 0.00 0.03 0.03 93 1013.8
20170120232339 32 336 0.0 0.0 0.00 0.03 0.03 94 1013.9
20170120231844 32 336 0.0 0.0 0.00 0.03 0.03 93 1013.9
20170120231145 32 336 0.0 0.0 0.00 0.03 0.03 92 1013.9
20170120230841 32 336 0.0 0.0 0.00 0.03 0.03 93 1013.9
20170120225538 32 336 0.0 0.0 0.00 0.04 0.03 92 1013.9
20170120225339 33 336 0.0 0.0 0.00 0.03 0.03 92 1013.9
20170120224843 33 336 0.0 0.0 0.00 0.03 0.03 92 1013.9
20170120223850 32 336 0.0 0.0 0.00 0.04 0.03 92 1013.8
20170120222842 33 336 0.0 0.0 0.00 0.04 0.03 92 1013.7
20170120222339 33 336 0.0 0.0 0.00 0.04 0.03 92 1013.7
20170120222239 32 336 0.0 0.0 0.00 0.04 0.03 92 1013.7
20170120221841 33 336 0.0 0.0 0.00 0.04 0.03 92 1013.6
20170120220841 33 336 0.0 0.0 0.00 0.04 0.03 92 1013.6
20170120220538 33 336 0.0 0.0 0.00 0.04 0.03 91 1013.6
20170120220339 33 336 0.0 0.0 0.00 0.04 0.03 92 1013.6
20170120214842 33 336 0.0 0.0 0.00 0.04 0.03 90 1013.5
20170120214340 33 336 0.0 0.0 0.00 0.04 0.03 90 1013.5
20170120213841 33 336 0.0 0.0 0.00 0.04 0.03 90 1013.5
20170120213339 33 336 0.0 0.0 0.00 0.04 0.03 90 1013.4
20170120211737 33 336 0.0 0.0 0.00 0.04 0.03 88 1013.5
20170120210841 33 336 0.0 2.0 0.00 0.04 0.03 88 1013.6
20170120210041 33 207 0.0 0.0 0.00 0.04 0.03 87 1013.7
20170120204344 33 198 0.0 2.0 0.00 0.08 0.03 87 1013.8
20170120203841 34 248 0.0 1.0 0.00 0.05 0.03 87 1013.9
20170120202841 34 249 0.0 3.0 0.00 0.06 0.03 87 1013.9
20170120202746 34 249 0.0 4.0 0.00 0.08 0.03 87 1014.0
20170120201841 34 270 1.0 3.0 0.00 0.07 0.03 86 1013.9
20170120201338 34 213 0.0 2.0 0.00 0.07 0.03 86 1013.9
20170120201036 34 213 0.0 3.0 0.00 0.08 0.03 86 1014.0
20170120200841 34 213 0.0 3.0 0.00 0.08 0.03 86 1014.0
20170120200339 34 214 1.0 3.0 0.00 0.08 0.03 86 1014.0
20170120195344 34 264 0.0 2.0 0.00 0.14 0.03 86 1014.1
20170120193841 34 173 0.0 2.0 0.01 0.10 0.03 86 1014.1
20170120193644 34 173 0.0 3.0 0.01 0.14 0.03 86 1014.1
20170120193339 34 190 1.0 2.0 0.01 0.10 0.03 85 1014.1
20170120192037 34 163 0.0 4.0 0.01 0.14 0.03 85 1014.1
20170120191841 35 186 1.0 3.0 0.01 0.12 0.03 85 1014.1
20170120191338 35 53 0.0 1.0 0.01 0.12 0.03 86 1014.1
20170120190350 34 53 0.0 3.0 0.01 0.14 0.03 84 1014.1
20170120190339 35 45 1.0 3.0 0.01 0.13 0.03 84 1014.1
20170120185838 35 230 1.0 3.0 0.02 0.14 0.03 85 1014.2
20170120185339 35 254 1.0 3.0 0.02 0.14 0.03 84 1014.1
20170120184845 34 233 0.0 4.0 0.02 0.21 0.03 84 1014.1
20170120184338 35 7 1.0 3.0 0.01 0.14 0.02 84 1014.1
20170120183339 35 216 0.0 3.0 0.01 0.15 0.02 84 1014.1
20170120183049 34 217 0.0 4.0 0.01 0.20 0.02 84 1014.2
20170120182338 35 165 0.0 2.0 0.01 0.17 0.02 84 1014.2
20170120181840 35 164 0.0 2.0 0.01 0.17 0.02 85 1014.2
20170120181539 34 164 0.0 3.0 0.01 0.20 0.02 85 1014.3
20170120181339 35 164 0.0 3.0 0.01 0.18 0.02 85 1014.3
20170120180841 35 164 1.0 3.0 0.01 0.19 0.02 84 1014.2
20170120175837 34 198 0.0 4.0 0.00 0.31 0.01 85 1014.2
20170120174039 34 262 0.0 3.0 0.00 0.31 0.01 85 1014.3
20170120173841 35 210 1.0 3.0 0.00 0.22 0.01 85 1014.3
20170120172539 34 243 0.0 3.0 0.00 0.31 0.01 86 1014.4
20170120170737 34 241 0.0 4.0 0.00 0.31 0.01 86 1014.8
20170120170339 34 144 0.0 2.0 0.00 0.30 0.01 87 1015.0
20170120165343 33 132 0.0 2.0 0.00 0.39 0.01 87 1015.2
20170120164841 34 130 1.0 2.0 0.00 0.34 0.01 88 1015.4
20170120164339 34 119 0.0 3.0 0.00 0.35 0.01 89 1015.5
20170120163539 33 253 0.0 3.0 0.00 0.39 0.01 89 1015.6
20170120162840 34 215 0.0 3.0 0.00 0.38 0.01 89 1015.6
20170120162338 33 215 1.0 3.0 0.01 0.39 0.01 89 1015.6
20170120161844 33 199 0.0 2.0 0.01 0.39 0.01 90 1015.7
20170120161841 33 199 0.0 2.0 0.01 0.39 0.01 90 1015.7
20170120161338 33 257 0.0 3.0 0.01 0.39 0.01 91 1015.7
20170120160840 33 164 0.0 3.0 0.01 0.39 0.01 91 1015.8
20170120160238 33 55 0.0 3.0 0.01 0.39 0.01 93 1015.9
20170120155838 33 249 1.0 3.0 0.01 0.39 0.01 93 1016.1
20170120155338 33 250 0.0 3.0 0.01 0.39 0.01 94 1016.1
20170120154841 33 148 1.0 2.0 0.01 0.39 0.01 95 1016.2
20170120154539 32 148 0.0 2.0 0.01 0.39 0.01 95 1016.3
20170120154338 33 107 0.0 1.0 0.01 0.39 0.01 96 1016.3
20170120153841 33 42 0.0 1.0 0.01 0.39 0.01 96 1016.4
20170120153339 33 42 0.0 1.0 0.01 0.39 0.01 98 1016.4
20170120152845 32 42 0.0 0.0 0.01 0.39 0.01 98 1016.4
20170120152338 32 42 0.0 0.0 0.00 0.38 0.00 98 1016.5
20170120151338 32 42 0.0 0.0 0.00 0.38 0.00 98 1016.5
20170120151239 32 42 0.0 0.0 0.00 0.38 0.00 98 1016.5
20170120150841 32 42 0.0 0.0 0.00 0.38 0.00 98 1016.5
20170120145536 31 42 0.0 0.0 0.00 0.38 0.00 99 1016.4
20170120145338 31 42 0.0 0.0 0.00 0.38 0.00 99 1016.3
20170120144841 31 42 0.0 0.0 0.00 0.38 0.00 99 1016.4
20170120143856 31 42 0.0 0.0 0.00 0.38 0.00 99 1016.4
20170120143338 31 42 0.0 1.0 0.00 0.38 0.00 99 1016.5
20170120142239 30 42 0.0 1.0 0.00 0.38 0.00 99 1016.3
20170120141840 30 42 0.0 0.0 0.00 0.38 0.00 99 1016.2
20170120141338 30 42 0.0 0.0 0.00 0.38 0.00 99 1016.3
20170120140546 29 42 0.0 0.0 0.00 0.38 0.00 98 1016.2
20170120135838 29 42 0.0 0.0 0.00 0.38 0.00 99 1016.3
20170120135042 28 42 0.0 0.0 0.00 0.38 0.00 98 1016.4
20170120134840 28 42 0.0 0.0 0.00 0.38 0.00 99 1016.3
20170120134338 28 42 0.0 0.0 0.00 0.38 0.00 99 1016.3
20170120133338 27 42 0.0 0.0 0.00 0.38 0.00 98 1016.2
20170120132841 28 42 0.0 0.0 0.00 0.38 0.00 98 1016.2
20170120132338 27 42 0.0 0.0 0.00 0.38 0.00 98 1016.2
20170120131840 27 42 0.0 0.0 0.00 0.38 0.00 98 1016.2
20170120131737 27 42 0.0 0.0 0.00 0.38 0.00 98 1016.2
20170120131338 27 42 0.0 0.0 0.00 0.38 0.00 98 1016.2
20170120130047 26 42 0.0 0.0 0.00 0.38 0.00 98 1016.2
20170120125838 27 42 0.0 0.0 0.00 0.38 0.00 98 1016.2
20170120125338 26 42 0.0 0.0 0.00 0.38 0.00 98 1016.2
20170120124346 26 42 0.0 0.0 0.00 0.38 0.00 98 1016.0
20170120124338 26 42 0.0 0.0 0.00 0.38 0.00 98 1016.0
20170120123841 26 42 0.0 0.0 0.00 0.38 0.00 98 1016.0
20170120123338 26 42 0.0 0.0 0.00 0.38 0.00 98 1015.9
20170120122737 25 42 0.0 0.0 0.00 0.38 0.00 98 1015.8
20170120122339 26 42 0.0 0.0 0.00 0.38 0.00 98 1015.8
20170120121840 26 42 0.0 0.0 0.00 0.38 0.00 98 1015.8
20170120121338 26 42 0.0 0.0 0.00 0.38 0.00 98 1015.9
20170120121042 25 42 0.0 0.0 0.00 0.38 0.00 98 1015.8
20170120120338 26 42 0.0 0.0 0.00 0.38 0.00 98 1015.9
20170120115343 25 42 0.0 0.0 0.00 0.38 0.00 98 1016.0
20170120114337 25 42 0.0 0.0 0.00 0.38 0.00 97 1015.9
20170120113737 25 42 0.0 0.0 0.00 0.38 0.00 97 1015.9
20170120113338 25 42 0.0 0.0 0.00 0.38 0.00 97 1015.8
20170120112841 26 42 0.0 0.0 0.00 0.38 0.00 97 1015.8
20170120112338 26 42 0.0 0.0 0.00 0.38 0.00 97 1015.8
20170120112139 25 42 0.0 0.0 0.00 0.38 0.00 97 1015.7
20170120111840 26 42 0.0 0.0 0.00 0.38 0.00 98 1015.7
20170120111338 26 42 0.0 0.0 0.00 0.38 0.00 98 1015.6
20170120110543 26 42 0.0 0.0 0.00 0.38 0.00 97 1015.8
20170120105842 27 42 0.0 0.0 0.00 0.38 0.00 97 1015.9
20170120105338 27 42 0.0 0.0 0.00 0.38 0.00 98 1015.8
20170120104841 27 42 0.0 0.0 0.00 0.38 0.00 98 1015.9
20170120104738 26 42 0.0 0.0 0.00 0.38 0.00 98 1015.9
20170120104338 27 42 0.0 0.0 0.00 0.38 0.00 98 1015.8
20170120103841 27 42 0.0 0.0 0.00 0.38 0.00 98 1015.7
20170120103339 27 42 0.0 0.0 0.00 0.38 0.00 98 1015.7
20170120103238 27 42 0.0 0.0 0.00 0.38 0.00 98 1015.7
20170120102840 28 42 0.0 0.0 0.00 0.38 0.00 98 1015.9
20170120102338 28 42 0.0 0.0 0.00 0.38 0.00 98 1015.9
20170120101840 28 42 0.0 0.0 0.00 0.38 0.00 98 1015.9
20170120101537 27 42 0.0 0.0 0.00 0.38 0.00 98 1015.9
20170120101338 28 42 0.0 0.0 0.00 0.38 0.00 98 1016.0
20170120100841 28 42 0.0 0.0 0.00 0.38 0.00 98 1016.0
20170120100339 28 42 0.0 0.0 0.00 0.38 0.00 98 1016.1
20170120095838 28 42 0.0 0.0 0.00 0.38 0.00 98 1016.1
20170120095339 28 42 0.0 0.0 0.00 0.38 0.00 98 1016.1
20170120094243 28 42 0.0 0.0 0.00 0.38 0.00 98 1015.8
20170120093840 29 42 0.0 0.0 0.00 0.38 0.00 98 1015.9
20170120093338 29 42 0.0 0.0 0.00 0.38 0.00 98 1015.9
20170120092841 29 42 0.0 0.0 0.00 0.38 0.00 98 1015.8
20170120092741 28 42 0.0 0.0 0.00 0.38 0.00 98 1015.8
20170120090847 29 42 0.0 0.0 0.00 0.38 0.00 98 1015.8
20170120090841 30 42 0.0 0.0 0.00 0.38 0.00 98 1015.8
20170120085838 30 42 0.0 0.0 0.00 0.38 0.00 98 1015.8
20170120085241 29 42 0.0 0.0 0.00 0.38 0.00 98 1015.9
20170120084840 30 42 0.0 0.0 0.00 0.38 0.00 98 1015.8
20170120084338 30 42 0.0 0.0 0.00 0.38 0.00 98 1015.6
20170120083840 30 42 0.0 0.0 0.00 0.38 0.00 98 1015.8
20170120083539 29 42 0.0 0.0 0.00 0.38 0.00 98 1016.0
20170120082840 30 42 0.0 0.0 0.00 0.38 0.00 98 1016.0
20170120082338 30 42 0.0 0.0 0.00 0.38 0.00 98 1016.0
20170120081844 29 42 0.0 0.0 0.00 0.38 0.00 98 1016.1
20170120081841 30 42 0.0 0.0 0.00 0.38 0.00 98 1016.1
20170120080338 30 42 0.0 0.0 0.00 0.38 0.00 98 1016.1
20170120080237 29 42 0.0 0.0 0.00 0.38 0.00 98 1016.1
20170120075339 29 42 0.0 0.0 0.00 0.38 0.00 98 1016.1
20170120074840 29 42 0.0 0.0 0.00 0.38 0.00 98 1016.3
20170120074539 29 42 0.0 0.0 0.00 0.38 0.00 98 1016.3
20170120073338 29 42 0.0 0.0 0.00 0.38 0.00 98 1016.2
20170120072842 29 42 0.0 0.0 0.00 0.38 0.00 98 1016.1
20170120072840 29 42 0.0 0.0 0.00 0.38 0.00 98 1016.1
20170120072338 29 42 0.0 0.0 0.00 0.38 0.00 98 1015.9
20170120071337 29 42 0.0 1.0 0.00 0.38 0.00 98 1015.8
20170120070840 29 42 0.0 0.0 0.00 0.38 0.00 98 1015.6
20170120070338 29 42 0.0 0.0 0.00 0.38 0.00 98 1015.4
20170120065839 29 42 0.0 0.0 0.00 0.38 0.00 98 1015.4
20170120065538 29 42 0.0 0.0 0.00 0.38 0.00 98 1015.3
20170120064841 29 42 0.0 0.0 0.00 0.38 0.00 98 1015.4
20170120064039 28 42 0.0 0.0 0.00 0.38 0.00 98 1015.4
20170120062338 28 42 0.0 0.0 0.00 0.38 0.00 98 1015.6
20170120062237 28 42 0.0 0.0 0.00 0.38 0.00 98 1015.6
20170120061840 28 42 0.0 0.0 0.00 0.38 0.00 98 1015.6
20170120060840 28 42 0.0 0.0 0.00 0.38 0.00 98 1015.4
20170120060736 28 42 0.0 0.0 0.00 0.38 0.00 98 1015.4
20170120060339 28 42 0.0 0.0 0.00 0.38 0.00 98 1015.6
20170120055838 28 42 0.0 0.0 0.00 0.38 0.00 98 1015.5
20170120055036 28 42 0.0 0.0 0.00 0.38 0.00 97 1015.4
20170120054840 29 42 0.0 0.0 0.00 0.38 0.00 97 1015.3
20170120053350 28 42 0.0 0.0 0.00 0.38 0.00 98 1015.3
20170120053338 29 42 0.0 0.0 0.00 0.38 0.00 98 1015.3
20170120052338 29 42 0.0 0.0 0.00 0.38 0.00 98 1015.2
20170120051739 29 42 0.0 0.0 0.00 0.38 0.00 98 1015.2
20170120050339 29 42 0.0 0.0 0.00 0.38 0.00 98 1015.5
20170120050045 29 42 0.0 0.0 0.00 0.38 0.00 98 1015.5
20170120045837 29 42 0.0 0.0 0.00 0.38 0.00 98 1015.5
20170120044941 30 42 0.0 0.0 0.00 0.38 0.38 98 1015.5
20170120044439 30 42 0.0 0.0 0.00 0.38 0.38 98 1015.4
20170120044341 29 42 0.0 0.0 0.00 0.38 0.38 98 1015.4
20170120043439 30 42 0.0 0.0 0.00 0.38 0.38 97 1015.5
20170120042941 30 42 0.0 0.0 0.00 0.38 0.38 98 1015.5
20170120042649 30 42 0.0 0.0 0.00 0.38 0.38 98 1015.6
20170120042438 30 42 0.0 0.0 0.00 0.38 0.38 97 1015.8
20170120041942 31 42 0.0 0.0 0.00 0.38 0.38 97 1015.9